PY2XH-13 Weather Reports


time (UTC)temp
F
wind
direction
speed
knots
gust
knots
rain 1hr
in
rain 24hr
in
rain mn
in
humidity
%
barometer
mb
20260505124605 71 0.0 0.0 0.00 0.00 0.00 71 1037.3
20260505121604 71 0.0 0.0 0.00 0.00 0.00 71 1037.1
20260505114604 71 0.0 0.0 0.00 0.00 0.00 70 1036.9
20260505111604 71 0.0 0.0 0.00 0.00 0.00 70 1036.5
20260505101605 70 0.0 0.0 0.00 0.00 0.00 70 1035.9
20260505094604 70 0.0 0.0 0.00 0.00 0.00 70 1035.6
20260505091604 70 0.0 0.0 0.00 0.00 0.00 70 1035.3
20260505084604 70 0.0 0.0 0.00 0.00 0.00 70 1035.0
20260505081605 70 0.0 0.0 0.00 0.00 0.00 70 1034.6
20260505074605 70 0.0 0.0 0.00 0.00 0.00 71 1034.4
20260505071604 70 0.0 0.0 0.00 0.00 0.00 71 1034.6
20260505064604 71 0.0 0.0 0.00 0.00 0.00 71 1034.8
20260505061604 71 0.0 0.0 0.00 0.00 0.00 71 1034.9
20260505054604 71 0.0 0.0 0.00 0.00 0.00 71 1035.0
20260505051604 71 0.0 0.0 0.00 0.00 0.00 71 1035.1
20260505041604 71 0.0 0.0 0.00 0.00 0.00 71 1035.4
20260505034604 71 0.0 0.0 0.00 0.00 0.00 72 1035.6
20260505031604 71 0.0 0.0 0.00 0.00 0.00 72 1035.5
20260505024604 71 0.0 0.0 0.00 0.00 0.00 72 1035.5
20260505021604 71 0.0 0.0 0.00 0.00 0.00 71 1035.5
20260505014604 71 0.0 0.0 0.00 0.00 0.00 70 1035.5
20260505011604 71 0.0 0.0 0.00 0.00 0.00 71 1035.5
20260505004605 71 0.0 0.0 0.00 0.00 0.00 71 1035.6
20260505001604 71 0.0 0.0 0.00 0.00 0.00 72 1035.5
20260504234604 71 0.0 0.0 0.00 0.00 0.00 71 1035.2
20260504231604 71 0.0 0.0 0.00 0.00 0.00 72 1035.1
20260504224604 71 0.0 0.0 0.00 0.00 0.00 73 1034.5
20260504221604 71 0.0 0.0 0.00 0.00 0.00 72 1034.4
20260504214604 71 0.0 0.0 0.00 0.00 0.00 71 1033.7
20260504211605 71 0.0 0.0 0.00 0.00 0.00 71 1033.5
20260504204604 71 0.0 0.0 0.00 0.00 0.00 70 1033.2
20260504201604 72 0.0 0.0 0.00 0.00 0.00 71 1033.2
20260504194605 72 0.0 0.0 0.00 0.00 0.00 69 1032.9
20260504191604 73 0.0 0.0 0.00 0.00 0.00 61 1032.4
20260504184604 73 0.0 0.0 0.00 0.00 0.00 59 1032.2
20260504181604 75 0.0 0.0 0.00 0.00 0.00 56 1032.1
20260504174604 75 0.0 0.0 0.00 0.00 0.00 57 1032.1
20260504171604 74 0.0 0.0 0.00 0.00 0.00 59 1032.5